Home > Time Zones > World Clock > Weather > Italy > Genoa > Past weeks

Flag for Italy Weather past 2 weeks in Genoa, Italy

Now
66 °F

Sunny.


Feels Like: 66 °F
Forecast: 54 / 69 °F
Wind: 5 mph from South

Location: Genova / Sestri


UV Index: 3 (Moderate)

Visibility: 10 mi


Pressure: 29.95 "Hg

Humidity: 73%

Dew point: 57 °F

Location of GenoaLocation

Historic Weather in Genoa

°F

Genoa temperature yesterday

Maximum temperature yesterday: 77 °F (at 3:20 PM)
Minimum temperature yesterday: 55 °F (at 4:20 AM)
Average temperature yesterday: 65 °F

Past Weeks' High & Low Weather Summary

 TemperatureHumidityPressure
High77 °F (Apr 23, 3:20 PM)100% (Apr 19, 3:20 AM)30.15 "Hg (Apr 19, 3:20 AM)
Low48 °F (Apr 17, 6:50 AM)8% (Apr 15, 5:20 PM)29.56 "Hg (Apr 19, 2:50 AM)
Average59 °F69%29.93 "Hg
* Reported Apr 9 2:20 PM — Apr 24 2:50 PM, Genoa, Weather by CustomWeather, © 2014

Note: Actual official high and low records may vary slightly from our data, if they occured in-between our weather recording intervals... More about our weather records

Advertising

Historic Weather Conditions — Data for Previous 24 hours

 ConditionsComfort  
Time TempWeatherWind HumidityBarometerVisibility
2:50 PM
Apr 24
66 °FPassing clouds.5 mph78%29.95 "HgN/A
2:20 PM66 °FPassing clouds.3 mph83%29.98 "HgN/A
1:50 PM66 °FPassing clouds.5 mph78%29.98 "HgN/A
1:20 PM66 °FPassing clouds.5 mph78%29.98 "HgN/A
12:50 PM66 °FPassing clouds.3 mph78%29.98 "HgN/A
12:20 PM66 °FPassing clouds.3 mph78%30.01 "HgN/A
11:50 AM64 °FSunny.5 mph83%30.01 "Hg10 mi
11:20 AM66 °FPassing clouds.5 mph78%30.01 "HgN/A
10:50 AM64 °FSunny.6 mph88%30.01 "Hg10 mi
10:20 AM64 °FSunny.8 mph83%30.01 "Hg10 mi
9:50 AM64 °FSunny.10 mph78%30.01 "Hg10 mi
9:20 AM68 °FSunny.2 mph56%29.98 "Hg10 mi
8:50 AM64 °FSunny.2 mph60%29.98 "Hg10 mi
8:20 AM63 °FSunny.2 mph64%29.98 "Hg10 mi
7:50 AM61 °FSunny.3 mph63%29.98 "Hg10 mi
7:20 AM61 °FClear.5 mph68%29.98 "Hg10 mi
6:50 AM57 °FClear.5 mph77%29.98 "Hg10 mi
6:20 AM59 °FClear.5 mph68%29.98 "Hg10 mi
5:50 AM57 °FClear.5 mph72%29.98 "Hg10 mi
5:20 AM59 °FPassing clouds.3 mph72%29.98 "HgN/A
4:50 AM59 °FClear.3 mph68%29.98 "Hg10 mi
4:20 AM59 °FClear.3 mph72%29.98 "Hg10 mi
3:50 AM57 °FClear.5 mph77%29.98 "Hg10 mi
3:20 AM63 °FPassing clouds.3 mph64%29.98 "HgN/A
2:50 AM61 °FClear.5 mph68%29.98 "Hg10 mi
2:20 AM61 °FClear.3 mph68%29.98 "Hg10 mi
1:50 AM61 °FPassing clouds.3 mph72%29.98 "HgN/A
1:20 AM59 °FPassing clouds.5 mph77%29.98 "HgN/A
12:50 AM61 °FClear.2 mph72%29.98 "Hg10 mi
12:20 AM63 °FClear.5 mph68%29.98 "Hg10 mi
11:50 PM
Apr 23
61 °FPassing clouds.3 mph72%29.98 "HgN/A
11:20 PM64 °FPassing clouds.5 mph64%29.98 "HgN/A
10:50 PM63 °FPassing clouds.3 mph68%29.98 "HgN/A
10:20 PM63 °FClear.5 mph68%29.98 "Hg10 mi
9:50 PM64 °FClear.3 mph64%30.01 "Hg10 mi
9:20 PM64 °FPassing clouds.2 mph68%29.98 "HgN/A
8:50 PM63 °FPassing clouds.3 mph77%29.98 "HgN/A
8:20 PM64 °FPassing clouds.3 mph68%29.98 "HgN/A
7:50 PM64 °FPassing clouds.2 mph68%29.98 "HgN/A
7:20 PM66 °FPassing clouds.6 mph64%29.95 "HgN/A
6:50 PM66 °FScattered clouds.2 mph64%29.98 "HgN/A
6:20 PM66 °FScattered clouds.2 mph64%29.95 "HgN/A
5:50 PM64 °FScattered showers. Scattered clouds.6 mph73%29.95 "HgN/A
5:20 PM64 °FScattered clouds.7 mph78%29.95 "HgN/A
4:50 PM64 °FScattered clouds.14 mph78%29.95 "HgN/A
4:20 PM73 °FScattered clouds.5 mph41%29.95 "HgN/A
3:50 PM75 °FScattered clouds.3 mph39%29.95 "HgN/A
3:20 PM77 °FScattered clouds.3 mph36%29.95 "HgN/A
Weather by CustomWeather, © 2014

See weather overview